Regional Weather Roundup
Issued by NWS

Home | Current Version | Previous Version | Graphics & Text | Print | Product List | Glossary Off
Versions: 1 2 3 4 5 6 7 8 9 10 11 12 13 14 15 16 17 18 19 20 21 22 23 24 25 26 27 28 29 30 31 32 33 34 35 36 37 38 39 40 41 42 43 44 45 46 47 48 49 50

506
ASUS43 KMKX 302111
RWRWI

WISCONSIN REGIONAL WEATHER ROUNDUP
NATIONAL WEATHER SERVICE MILWAUKEE/SULLIVAN WI
400 PM CDT TUE AUG 30 2016

NOTE: "FAIR" INDICATES FEW OR NO CLOUDS BELOW 12,000 FEET WITH NO
SIGNIFICANT WEATHER AND/OR OBSTRUCTIONS TO VISIBILITY.

WIZ001-002-006>008-014>016-023>028-302200-
NORTHWEST WISCONSIN

CITY           SKY/WX    TMP DP  RH WIND       PRES   REMARKS
SUPERIOR ARPT  SUNNY     77  55  45 NW6       30.14S
ASHLAND        SUNNY     76  53  44 VRB5      30.14S
HAYWARD        SUNNY     76  49  38 VRB3      30.15S
SIREN          SUNNY     77  53  42 N7        30.15F
CUMBERLAND     CLOUDY    73  50  43 N8        30.16S
RICE LAKE      CLOUDY    76  56  49 NW6       30.16S
CHETEK         NOT AVBL
LADYSMITH      MOSUNNY   76  58  52 NW5       30.15S
EAU CLAIRE     MOSUNNY   78  62  57 N9        30.12S HX  80
MENOMONIE      MOSUNNY   78  60  54 NW8       30.13F
NEW RICHMOND   MOSUNNY   77  57  50 NW8       30.16F
OSCEOLA        MOSUNNY   77  60  55 NW7       30.19S
$$

WIZ003>005-009-010-017-018-302200-
NORTH CENTRAL WISCONSIN

CITY           SKY/WX    TMP DP  RH WIND       PRES   REMARKS
MANITOWISH WTR NOT AVBL
ARBOR VITAE    MOSUNNY   77  58  51 N9        30.13S
WOODRUFF       MOSUNNY   77  58  51 N9        30.13S
RHINELANDER    MOSUNNY   76  60  57 N6        30.12F
EAGLE RIVER    MOSUNNY   75  57  54 NW10      30.11S
LAND O LAKES   MOSUNNY   76  54  46 NW7       30.13S
PHILLIPS       PTSUNNY   75  59  58 NW6       30.13S
TOMAHAWK       CLOUDY    76  61  60 NW9       30.12F
MEDFORD        CLOUDY    74  61  63 NW9       30.11F
MERRILL        CLOUDY    79  62  56 N3        30.10F HX  80
$$

WIZ029-030-035-036-043>047-302200-
CENTRAL WISCONSIN

CITY           SKY/WX    TMP DP  RH WIND       PRES   REMARKS
WAUSAU         MOSUNNY   81  62  52 NW10      30.07F HX  82
MOSINEE        MOSUNNY   79  66  65 NW8       30.09F HX  81
MARSHFIELD     PTSUNNY   80  64  58 N10       30.09F HX  82
STEVENS POINT  CLOUDY    79  63  58 CALM      30.07F HX  81
WAUPACA        MOSUNNY   85  62  45 W8        30.05F HX  86
WAUTOMA        MOSUNNY   83  64  52 W8        30.06F HX  84
WISC RAPIDS    MOSUNNY   84  64  50 W10       30.09F HX  85
CAMP DOUGLAS   PTSUNNY   81  66  61 NW6       30.08F HX  83
$$

WIZ011>013-019>022-031-037>040-048>050-302200-
NORTHEAST WISCONSIN

CITY           SKY/WX    TMP DP  RH WIND       PRES   REMARKS
ANTIGO         PTSUNNY   77  63  62 NW5       30.09F
SHAWANO        CLOUDY    86  64  47 W6        30.04S HX  87
OCONTO         NOT AVBL
STURGEON BAY   MOSUNNY   81  66  60 SW6       30.04F HX  83
GREEN BAY      SUNNY     85  67  54 W6        30.03F HX  87
MANITOWOC      MOSUNNY   82  70  66 VRB5      30.03F HX  86
APPLETON       PTSUNNY   84  57  39 W8        30.04F HX  83
CLINTONVILLE   MOSUNNY   86  61  42 W7        30.03F HX  86
OSHKOSH        MOSUNNY   83  63  50 W5        30.04F HX  84
$$

WIZ032>034-041-042-053>061-302200-
SOUTHWEST WISCONSIN

CITY           SKY/WX    TMP DP  RH WIND       PRES   REMARKS
LA CROSSE      PTSUNNY   82  67  60 NW9       30.09F HX  84
SPARTA         CLOUDY    79  64  59 NW8       30.10S HX  81
VIROQUA        PTSUNNY   80  65  59 NW7       30.12S HX  82
BOSCOBEL       CLOUDY    84  69  60 VRB7      30.08F HX  88
PRAIRIE DU CHI CLOUDY    81  66  60 NW6       30.08F HX  83
PLATTEVILLE    PTSUNNY   82  73  76 NW8       30.09F HX  87
$$

WIZ056-057-062-063-064-067-068-302200-
SOUTH CENTRAL WISCONSIN

CITY           SKY/WX    TMP DP  RH WIND       PRES   REMARKS
REEDSBURG      NOT AVBL
BARABOO/DELLS  PTSUNNY   82  63  51 N7        30.08F HX  83
LONE ROCK      CLOUDY    83  69  62 NW9       30.07F HX  86
MINERAL POINT  PTSUNNY   81  68  65 NW8       30.09F HX  83
MADISON        CLOUDY    84  68  58 NW6       30.07S HX  87
MIDDLETON      MOSUNNY   82  70  66 CALM      30.08S HX  86
WATERTOWN      MOSUNNY   79  73  81 S7        30.07S HX  82
MONROE         LGT RAIN  70  70 100 S7        30.10S
JANESVILLE     PTSUNNY   72  72 100 VRB3      30.08F
$$

WIZ051-052-058>065-066-070>072-302200-
SOUTHEAST WISCONSIN

CITY           SKY/WX    TMP DP  RH WIND       PRES   REMARKS
MILWAUKEE      RAIN      74  69  85 SW5       30.07F
WAUKESHA       MOSUNNY   73  68  83 SW3       30.11R
MILWAUKEE/TIMM MOSUNNY   73  66  78 CALM      30.09S
RACINE         RAIN      70  68  93 S7        30.10S FOG
BURLINGTON     LGT RAIN  69  67  96 CALM      30.10F
KENOSHA        LGT RAIN  71  68  90 SE3       30.09F FOG
FOND DU LAC    MOSUNNY   84  66  54 NW8       30.05F HX  86
SHEBOYGAN      PTSUNNY   83  67  58 VRB3      30.05F HX  85
WEST BEND      CLOUDY    75  70  83 S8        30.07S
JUNEAU         CLOUDY    82  64  54 NW6       30.07F HX  84
$$

LSZ147-162-302200-
LAKE SUPERIOR

STATION/POSITION TIME  TEMP    WIND        PRES    WAVE
                       AIR SEA DIR/SP/G            HT/PER
                 (UTC) (F)     (DEG/KT/KT) (MB)    (FT/S)
W MID LAKE BUOY  2050   68 69  240/ 12/ 12 1019.3F   1
DEVILS ISLAND    2100   69     230/  5/  7 1020.2F
PORT WING        2000   71     300/  6/  7 1020.7
SAXON HARBOR     2000   71      30/  5/  7 1020.7F
$$

LMZ867-665-643>646-302200-
LAKE MICHIGAN

STATION/POSITION TIME  TEMP    WIND        PRES    WAVE
                       AIR SEA DIR/SP/G            HT/PER
                 (UTC) (F)     (DEG/KT/KT) (MB)    (FT/S)
CHAMBERS ISLAND  2000   81     170/  4/  8 1016.3F
S GREEN BAY BUOY 2000   76 75  190/  4/  6 1016.7F
N MID LAKE BUOY  2050   73 73  190/  4/  6 1015.8F   1
NORTHPORT PIER   1900   78     120/  3/  4 1017.3F
SISTER BAY       1907   82        CALM       N/A
ALGOMA LAKESHORE 2015          200/  5/  6   N/A
KEWAUNEE LAKESHO 2000   71     180/ 11/ 12 1017.0F
SHEBOYGAN LAKESH 2100   75     180/ 13/ 14 1016.6F
PORT WASHINGTON  2040   74     190/  4/  5 1018.3F
ATWATER BUOY     2100   68     260/  6/  6   N/A
MILWAUKEE LAKESH 2010   70     290/  4/  4   N/A
S MID LAKE BUOY  2050   75 76  200/  8/  8 1017.6F   1/ 3
KENOSHA   LAKESH 2100   71     280/  5/  7 1017.9F
$$

TC  - TEMPERATURE IN CELSIUS
VSB - VISIBILITY IN STATUTE MILES
WCI - WIND CHILL INDEX
HX  - HEAT INDEX





USA.gov is the U.S. government's official web portal to all federal, state and local government web resources and services.